User: anonymous   Login
Location: Oshawa
(43.9000°N, 78.8670°W)
Time: 17:47:13
(UTC-04:00)
Language:

Cosmos 2333 Rocket - Orbit

View from above orbital plane
View from above orbital plane
View from above satellite
View from above satellite

Ground track
Ground track

The orbit data is extracted from the following two-line orbital elements,

1 24298U 96051B   15208.08276234 -.00000181  00000-0 -71466-4 0  9994
2 24298 070.8417 078.9992 0014292 137.7585 222.4639 14.12408034974232
Epoch (UTC): 27 July 2015 01:59:10
Eccentricity: 0.0014292
inclination: 70.8417°
perigee height: 841 km
apogee height: 861 km
right ascension of ascending node: 78.9992°
argument of perigee: 137.7585°
revolutions per day: 14.12408034
mean anomaly at epoch: 222.4639°
orbit number at epoch: 97423

The dashed part of the orbit path shows where the satellite is in the earth's shadow,  

DLR